レモン彗星

P/2012 SB6 ( Lemmon )

English version
Home page
Updated on September 14, 2013

---------------------------------------------------------------------

・ プロフィール

発見日 2012年9月17日
発見光度 19.3等
発見者 R. A. Kowalski (Mount Lemmon Survey)

・ 写真集

・ 軌道要素

Epoch 2012 Nov. 9.0 TT = JDT 2456240.5
T 2012 Oct. 31.99581 TT                                 MPC
q   2.4064802            (2000.0)            P               Q
n   0.12744298     Peri.   12.79399     +0.92554491     -0.37731262
a   3.9107385      Node     9.55715     +0.32843524     +0.75842459
e   0.3846482      Incl.   10.98982     +0.18840626     +0.53143892
P   7.73
From 178 observations 2012 Sept. 14-2013 Feb. 6, mean residual 0".5.

・ 光度変化

        m1 = 13.5 + 5 logΔ + 10.0 log r

---------------------------------------------------------------------

軌道要素はM.P.E.C. 2013-C52に掲載されたものです。
光度グラフはComet for Windowsで作成したものです。

---------------------------------------------------------------------

Copyright(C) Seiichi Yoshida (comet@aerith.net). All rights reserved.